Time,TemperatureF,DewpointF,PressureIn,WindDirection,WindDirectionDegrees,WindSpeedMPH,WindSpeedGustMPH,Humidity,HourlyPrecipIn,Conditions,Clouds,dailyrainin,SoftwareType,DateUTC
2013-09-03 00:04:00,50.5,41.5,30.07,WSW,239,0.0,0.0,71,0.00,,---,0.00,VWS V13.01,2013-09-03 05:04:00,
2013-09-03 00:09:00,50.4,41.3,30.07,WSW,239,0.0,0.0,71,0.00,,---,0.00,VWS V13.01,2013-09-03 05:09:00,
2013-09-03 00:14:00,50.4,41.3,30.07,WSW,239,0.0,0.0,71,0.00,,---,0.00,VWS V13.01,2013-09-03 05:14:00,
2013-09-03 00:19:00,50.4,41.3,30.07,WSW,239,0.0,0.0,71,0.00,,---,0.00,VWS V13.01,2013-09-03 05:19:00,
2013-09-03 00:24:00,50.2,41.2,30.07,WSW,239,0.0,0.0,71,0.00,,---,0.00,VWS V13.01,2013-09-03 05:24:00,
2013-09-03 00:30:00,50.2,41.2,30.07,WSW,239,0.0,0.0,71,0.00,,---,0.00,VWS V13.01,2013-09-03 05:30:00,
2013-09-03 00:35:00,50.2,41.2,30.07,WSW,239,0.0,0.0,71,0.00,,---,0.00,VWS V13.01,2013-09-03 05:35:00,
2013-09-03 00:40:00,50.2,41.2,30.07,WSW,239,0.0,0.0,71,0.00,,---,0.00,VWS V13.01,2013-09-03 05:40:00,
2013-09-03 00:45:00,50.4,41.3,30.07,WSW,239,0.0,0.0,71,0.00,,---,0.00,VWS V13.01,2013-09-03 05:45:00,
2013-09-03 00:50:00,50.5,41.9,30.07,WSW,239,0.0,0.0,72,0.00,,---,0.00,VWS V13.01,2013-09-03 05:50:00,
2013-09-03 00:55:00,50.5,41.9,30.07,WSW,239,0.0,0.0,72,0.00,,---,0.00,VWS V13.01,2013-09-03 05:55:00,
2013-09-03 01:00:00,50.5,41.9,30.07,WSW,239,0.0,0.0,72,0.00,,---,0.00,VWS V13.01,2013-09-03 06:00:00,
2013-09-03 01:05:00,50.5,41.9,30.07,WSW,239,0.0,0.0,72,0.00,,---,0.00,VWS V13.01,2013-09-03 06:05:00,
2013-09-03 01:10:00,50.5,41.5,30.07,WSW,239,0.0,0.0,71,0.00,,---,0.00,VWS V13.01,2013-09-03 06:10:00,
2013-09-03 01:15:00,50.5,41.5,30.07,WSW,242,0.0,0.0,71,0.00,,---,0.00,VWS V13.01,2013-09-03 06:15:00,
2013-09-03 01:20:00,50.7,41.7,30.07,WSW,242,0.0,0.0,71,0.00,,---,0.00,VWS V13.01,2013-09-03 06:20:00,
2013-09-03 01:25:00,50.9,41.5,30.07,WSW,241,0.0,0.0,70,0.00,,---,0.00,VWS V13.01,2013-09-03 06:25:00,
2013-09-03 01:31:00,50.9,41.5,30.07,WSW,242,0.0,0.0,70,0.00,,---,0.00,VWS V13.01,2013-09-03 06:31:00,
2013-09-03 01:36:00,50.9,41.1,30.07,WSW,241,0.0,0.0,69,0.00,,---,0.00,VWS V13.01,2013-09-03 06:36:00,
2013-09-03 01:41:00,50.9,41.1,30.07,WSW,241,0.0,0.0,69,0.00,,---,0.00,VWS V13.01,2013-09-03 06:41:00,
2013-09-03 01:46:00,50.7,40.9,30.07,WSW,242,0.0,0.0,69,0.00,,---,0.00,VWS V13.01,2013-09-03 06:46:00,
2013-09-03 01:51:00,50.5,40.8,30.07,WSW,242,0.0,0.0,69,0.00,,---,0.00,VWS V13.01,2013-09-03 06:51:00,
2013-09-03 01:56:00,50.4,40.6,30.07,WSW,242,0.0,0.0,69,0.00,,---,0.00,VWS V13.01,2013-09-03 06:56:00,
2013-09-03 02:01:00,50.4,40.6,30.07,WSW,242,0.0,0.0,69,0.00,,---,0.00,VWS V13.01,2013-09-03 07:01:00,
2013-09-03 02:06:00,50.5,40.8,30.07,WSW,241,0.0,0.0,69,0.00,,---,0.00,VWS V13.01,2013-09-03 07:06:00,
2013-09-03 02:11:00,50.7,40.9,30.07,WSW,242,0.0,0.0,69,0.00,,---,0.00,VWS V13.01,2013-09-03 07:11:00,
2013-09-03 02:16:00,50.7,40.9,30.07,WSW,242,0.0,0.0,69,0.00,,---,0.00,VWS V13.01,2013-09-03 07:16:00,
2013-09-03 02:21:00,50.7,40.6,30.07,WSW,242,0.0,0.0,68,0.00,,---,0.00,VWS V13.01,2013-09-03 07:21:00,
2013-09-03 02:26:00,50.7,40.6,30.07,WSW,242,0.0,0.0,68,0.00,,---,0.00,VWS V13.01,2013-09-03 07:26:00,
2013-09-03 02:31:00,50.9,40.7,30.07,WSW,242,0.0,0.0,68,0.00,,---,0.00,VWS V13.01,2013-09-03 07:31:00,
2013-09-03 02:36:00,51.1,40.9,30.07,WSW,242,0.0,0.0,68,0.00,,---,0.00,VWS V13.01,2013-09-03 07:36:00,
2013-09-03 02:42:00,51.3,41.1,30.07,WSW,241,0.0,0.0,68,0.00,,---,0.00,VWS V13.01,2013-09-03 07:42:00,
2013-09-03 02:47:00,50.9,40.3,30.07,WSW,241,0.0,0.0,67,0.00,,---,0.00,VWS V13.01,2013-09-03 07:47:00,
2013-09-03 02:52:00,50.7,40.2,30.07,WSW,245,0.0,0.0,67,0.00,,---,0.00,VWS V13.01,2013-09-03 07:52:00,
2013-09-03 02:57:00,50.5,40.0,30.07,WSW,245,0.0,0.0,67,0.00,,---,0.00,VWS V13.01,2013-09-03 07:57:00,
2013-09-03 03:02:00,50.2,39.7,30.07,WSW,245,0.0,0.0,67,0.00,,---,0.00,VWS V13.01,2013-09-03 08:02:00,
2013-09-03 03:07:00,50.0,39.5,30.07,WSW,245,0.0,0.0,67,0.00,,---,0.00,VWS V13.01,2013-09-03 08:07:00,
2013-09-03 03:12:00,49.6,39.5,30.07,WSW,245,0.0,0.0,68,0.00,,---,0.00,VWS V13.01,2013-09-03 08:12:00,
2013-09-03 03:17:00,49.6,39.5,30.07,WSW,245,0.0,0.0,68,0.00,,---,0.00,VWS V13.01,2013-09-03 08:17:00,
2013-09-03 03:22:00,49.6,39.9,30.07,WSW,245,0.0,0.0,69,0.00,,---,0.00,VWS V13.01,2013-09-03 08:22:00,
2013-09-03 03:27:00,49.8,40.1,30.04,WSW,245,0.0,0.0,69,0.00,,---,0.00,VWS V13.01,2013-09-03 08:27:00,
2013-09-03 03:32:00,50.0,40.2,30.04,WSW,245,0.0,0.0,69,0.00,,---,0.00,VWS V13.01,2013-09-03 08:32:00,
2013-09-03 03:37:00,50.4,40.6,30.04,WSW,245,0.0,0.0,69,0.00,,---,0.00,VWS V13.01,2013-09-03 08:37:00,
2013-09-03 03:42:00,50.5,40.8,30.04,WSW,245,0.0,0.0,69,0.00,,---,0.00,VWS V13.01,2013-09-03 08:42:00,
2013-09-03 03:47:00,50.7,40.9,30.04,WSW,245,0.0,0.0,69,0.00,,---,0.00,VWS V13.01,2013-09-03 08:47:00,
2013-09-03 03:52:00,50.7,40.6,30.04,WSW,245,3.6,3.6,68,0.00,,---,0.00,VWS V13.01,2013-09-03 08:52:00,
2013-09-03 03:58:00,51.3,41.1,30.04,WSW,245,0.0,0.0,68,0.00,,---,0.00,VWS V13.01,2013-09-03 08:58:00,
2013-09-03 04:03:00,51.6,41.4,30.04,WSW,245,0.0,0.0,68,0.00,,---,0.00,VWS V13.01,2013-09-03 09:03:00,
2013-09-03 04:08:00,52.0,41.4,30.04,WSW,245,3.6,3.6,67,0.00,,---,0.00,VWS V13.01,2013-09-03 09:08:00,
2013-09-03 04:13:00,52.3,41.3,30.04,WSW,245,4.5,4.5,66,0.00,,---,0.00,VWS V13.01,2013-09-03 09:13:00,
2013-09-03 04:18:00,52.7,41.3,30.04,WSW,245,0.0,0.0,65,0.00,,---,0.00,VWS V13.01,2013-09-03 09:18:00,
2013-09-03 04:23:00,52.7,40.9,30.04,WSW,245,0.0,0.0,64,0.00,,---,0.00,VWS V13.01,2013-09-03 09:23:00,
2013-09-03 04:28:00,52.9,40.6,30.07,WSW,245,0.0,0.0,63,0.00,,---,0.00,VWS V13.01,2013-09-03 09:28:00,
2013-09-03 04:33:00,52.9,40.2,30.07,WSW,245,0.0,0.0,62,0.00,,---,0.00,VWS V13.01,2013-09-03 09:33:00,
2013-09-03 04:38:00,52.7,40.1,30.07,WSW,245,0.0,2.7,62,0.00,,---,0.00,VWS V13.01,2013-09-03 09:38:00,
2013-09-03 04:43:00,52.5,39.5,30.04,WSW,245,0.0,0.0,61,0.00,,---,0.00,VWS V13.01,2013-09-03 09:43:00,
2013-09-03 04:48:00,52.2,38.7,30.04,WSW,245,0.0,0.0,60,0.00,,---,0.00,VWS V13.01,2013-09-03 09:48:00,
2013-09-03 04:53:00,51.8,38.4,30.04,WSW,245,0.0,0.0,60,0.00,,---,0.00,VWS V13.01,2013-09-03 09:53:00,
2013-09-03 04:58:00,51.8,38.4,30.07,WSW,245,0.0,0.0,60,0.00,,---,0.00,VWS V13.01,2013-09-03 09:58:00,
2013-09-03 05:03:00,52.0,38.5,30.07,WSW,245,0.0,0.0,60,0.00,,---,0.00,VWS V13.01,2013-09-03 10:03:00,
2013-09-03 05:08:00,52.3,38.5,30.07,WSW,245,0.0,0.0,59,0.00,,---,0.00,VWS V13.01,2013-09-03 10:08:00,
2013-09-03 05:13:00,52.3,38.5,30.07,WSW,245,0.0,3.6,59,0.00,,---,0.00,VWS V13.01,2013-09-03 10:13:00,
2013-09-03 05:19:00,52.3,38.5,30.07,WSW,245,0.0,0.0,59,0.00,,---,0.00,VWS V13.01,2013-09-03 10:19:00,
2013-09-03 05:24:00,52.5,38.6,30.07,WSW,245,0.0,0.0,59,0.00,,---,0.00,VWS V13.01,2013-09-03 10:24:00,
2013-09-03 05:29:00,52.7,38.3,30.07,WSW,245,0.0,3.1,58,0.00,,---,0.00,VWS V13.01,2013-09-03 10:29:00,
2013-09-03 05:34:00,52.7,38.3,30.07,WSW,245,0.0,0.0,58,0.00,,---,0.00,VWS V13.01,2013-09-03 10:34:00,
2013-09-03 05:39:00,52.7,38.3,30.07,WSW,245,0.0,0.0,58,0.00,,---,0.00,VWS V13.01,2013-09-03 10:39:00,
2013-09-03 05:44:00,52.7,38.3,30.07,WSW,245,2.7,3.6,58,0.00,,---,0.00,VWS V13.01,2013-09-03 10:44:00,
2013-09-03 05:49:00,52.7,37.9,30.07,WSW,245,3.1,3.1,57,0.00,,---,0.00,VWS V13.01,2013-09-03 10:49:00,
2013-09-03 05:54:00,52.9,38.1,30.07,WSW,245,0.0,4.0,57,0.00,,---,0.00,VWS V13.01,2013-09-03 10:54:00,
2013-09-03 05:59:00,52.7,37.9,30.07,WSW,245,4.0,4.0,57,0.00,,---,0.00,VWS V13.01,2013-09-03 10:59:00,
2013-09-03 06:04:00,52.9,38.1,30.07,WSW,245,0.0,4.0,57,0.00,,---,0.00,VWS V13.01,2013-09-03 11:04:00,
2013-09-03 06:09:00,52.9,38.1,30.07,WSW,245,0.0,0.0,57,0.00,,---,0.00,VWS V13.01,2013-09-03 11:09:00,
2013-09-03 06:14:00,52.9,37.6,30.07,WSW,245,2.7,3.1,56,0.00,,---,0.00,VWS V13.01,2013-09-03 11:14:00,
2013-09-03 06:19:00,52.7,37.5,30.07,WSW,245,0.0,0.0,56,0.00,,---,0.00,VWS V13.01,2013-09-03 11:19:00,
2013-09-03 06:24:00,52.7,37.5,30.07,WSW,245,0.0,0.0,56,0.00,,---,0.00,VWS V13.01,2013-09-03 11:24:00,
2013-09-03 06:29:00,52.5,37.7,30.07,WSW,245,0.0,3.1,57,0.00,,---,0.00,VWS V13.01,2013-09-03 11:29:00,
2013-09-03 06:34:00,52.5,37.7,30.07,WSW,245,0.0,0.0,57,0.00,,---,0.00,VWS V13.01,2013-09-03 11:34:00,
2013-09-03 06:39:00,52.5,37.7,30.07,WNW,282,3.6,4.5,57,0.00,,---,0.00,VWS V13.01,2013-09-03 11:39:00,
2013-09-03 06:44:00,52.5,37.7,30.07,WNW,282,0.0,3.6,57,0.00,,---,0.00,VWS V13.01,2013-09-03 11:44:00,
2013-09-03 06:49:00,52.5,37.7,30.07,West,275,3.1,3.1,57,0.00,,---,0.00,VWS V13.01,2013-09-03 11:49:00,
2013-09-03 06:54:00,52.7,37.9,30.07,WSW,257,3.6,3.6,57,0.00,,---,0.00,VWS V13.01,2013-09-03 11:54:00,
2013-09-03 06:59:00,52.7,38.3,30.07,WSW,257,3.1,3.1,58,0.00,,---,0.00,VWS V13.01,2013-09-03 11:59:00,
2013-09-03 07:05:00,52.7,38.3,30.07,WSW,257,0.0,0.0,58,0.00,,---,0.00,VWS V13.01,2013-09-03 12:05:00,
2013-09-03 07:10:00,52.7,38.3,30.07,WSW,257,0.0,0.0,58,0.00,,---,0.00,VWS V13.01,2013-09-03 12:10:00,
2013-09-03 07:15:00,52.9,38.5,30.07,WSW,256,0.0,0.0,58,0.00,,---,0.00,VWS V13.01,2013-09-03 12:15:00,
2013-09-03 07:20:00,52.9,38.5,30.07,WSW,257,3.1,3.1,58,0.00,,---,0.00,VWS V13.01,2013-09-03 12:20:00,
2013-09-03 07:25:00,53.1,38.7,30.07,WSW,257,0.0,0.0,58,0.00,,---,0.00,VWS V13.01,2013-09-03 12:25:00,
2013-09-03 07:30:00,53.1,38.2,30.07,WSW,257,3.1,3.6,57,0.00,,---,0.00,VWS V13.01,2013-09-03 12:30:00,
2013-09-03 07:35:00,53.2,38.4,30.07,WSW,256,2.7,3.6,57,0.00,,---,0.00,VWS V13.01,2013-09-03 12:35:00,
2013-09-03 07:40:00,53.6,38.8,30.07,WSW,257,0.0,0.0,57,0.00,,---,0.00,VWS V13.01,2013-09-03 12:40:00,
2013-09-03 07:45:00,53.8,38.5,30.07,WSW,256,2.7,3.6,56,0.00,,---,0.00,VWS V13.01,2013-09-03 12:45:00,
2013-09-03 07:50:00,54.0,38.6,30.07,WSW,257,0.0,0.0,56,0.00,,---,0.00,VWS V13.01,2013-09-03 12:50:00,
2013-09-03 07:55:00,54.1,38.8,30.07,WSW,257,3.6,3.6,56,0.00,,---,0.00,VWS V13.01,2013-09-03 12:55:00,
2013-09-03 08:00:00,54.3,38.5,30.07,West,272,0.0,0.0,55,0.00,,---,0.00,VWS V13.01,2013-09-03 13:00:00,
2013-09-03 08:05:00,54.5,38.7,30.07,West,272,0.0,2.7,55,0.00,,---,0.00,VWS V13.01,2013-09-03 13:05:00,
2013-09-03 08:10:00,54.7,38.8,30.07,SW,229,4.7,4.7,55,0.00,,---,0.00,VWS V13.01,2013-09-03 13:10:00,
2013-09-03 08:15:00,54.9,39.0,30.07,SW,223,4.0,4.0,55,0.00,,---,0.00,VWS V13.01,2013-09-03 13:15:00,
2013-09-03 08:20:00,55.0,39.2,30.07,SW,223,3.1,3.1,55,0.00,,---,0.00,VWS V13.01,2013-09-03 13:20:00,
2013-09-03 08:25:00,55.4,39.5,30.07,SW,223,5.1,5.1,55,0.00,,---,0.00,VWS V13.01,2013-09-03 13:25:00,
2013-09-03 08:30:00,55.6,38.7,30.10,SW,223,4.7,4.7,53,0.00,,---,0.00,VWS V13.01,2013-09-03 13:30:00,
2013-09-03 08:35:00,55.8,38.4,30.10,SW,217,4.0,4.5,52,0.00,,---,0.00,VWS V13.01,2013-09-03 13:35:00,
2013-09-03 08:41:00,55.8,37.9,30.10,SW,218,3.6,3.6,51,0.00,,---,0.00,VWS V13.01,2013-09-03 13:41:00,
2013-09-03 08:46:00,56.1,38.3,30.07,SW,231,3.1,3.6,51,0.00,,---,0.00,VWS V13.01,2013-09-03 13:46:00,
2013-09-03 08:51:00,56.3,38.4,30.07,West,272,3.1,3.1,51,0.00,,---,0.00,VWS V13.01,2013-09-03 13:51:00,
2013-09-03 08:56:00,56.5,38.6,30.07,SW,217,0.0,3.6,51,0.00,,---,0.00,VWS V13.01,2013-09-03 13:56:00,
2013-09-03 09:01:00,56.7,38.8,30.10,WSW,247,2.7,2.7,51,0.00,,---,0.00,VWS V13.01,2013-09-03 14:01:00,
2013-09-03 09:06:00,57.0,39.1,30.10,SW,219,3.6,3.6,51,0.00,,---,0.00,VWS V13.01,2013-09-03 14:06:00,
2013-09-03 09:11:00,57.4,39.4,30.10,SW,219,3.1,4.0,51,0.00,,---,0.00,VWS V13.01,2013-09-03 14:11:00,
2013-09-03 09:16:00,57.6,39.1,30.07,SW,219,0.0,0.0,50,0.00,,---,0.00,VWS V13.01,2013-09-03 14:16:00,
2013-09-03 09:21:00,57.9,39.4,30.07,NW,316,0.0,0.0,50,0.00,,---,0.00,VWS V13.01,2013-09-03 14:21:00,
2013-09-03 09:26:00,58.1,39.6,30.07,West,272,4.0,4.0,50,0.00,,---,0.00,VWS V13.01,2013-09-03 14:26:00,
2013-09-03 09:31:00,58.5,39.9,30.07,West,273,0.0,0.0,50,0.00,,---,0.00,VWS V13.01,2013-09-03 14:31:00,
2013-09-03 09:36:00,58.8,39.7,30.07,SW,224,0.0,0.0,49,0.00,,---,0.00,VWS V13.01,2013-09-03 14:36:00,
2013-09-03 09:41:00,59.2,40.0,30.07,SW,224,3.1,3.1,49,0.00,,---,0.00,VWS V13.01,2013-09-03 14:41:00,
2013-09-03 09:46:00,59.5,40.4,30.07,SW,224,0.0,0.0,49,0.00,,---,0.00,VWS V13.01,2013-09-03 14:46:00,
2013-09-03 09:51:00,59.9,39.6,30.07,SW,224,0.0,0.0,47,0.00,,---,0.00,VWS V13.01,2013-09-03 14:51:00,
2013-09-03 09:56:00,60.4,40.1,30.07,WSW,257,3.1,3.1,47,0.00,,---,0.00,VWS V13.01,2013-09-03 14:56:00,
2013-09-03 10:02:00,61.0,40.1,30.07,SSW,213,5.1,5.6,46,0.00,,---,0.00,VWS V13.01,2013-09-03 15:02:00,
2013-09-03 10:07:00,61.3,39.8,30.07,WNW,285,0.0,4.5,45,0.00,,---,0.00,VWS V13.01,2013-09-03 15:07:00,
2013-09-03 10:12:00,61.5,40.0,30.07,SW,228,0.0,4.5,45,0.00,,---,0.00,VWS V13.01,2013-09-03 15:12:00,
2013-09-03 10:17:00,61.9,39.8,30.07,SW,228,4.7,4.7,44,0.00,,---,0.00,VWS V13.01,2013-09-03 15:17:00,
2013-09-03 10:22:00,62.2,39.5,30.07,WNW,291,4.5,4.5,43,0.00,,---,0.00,VWS V13.01,2013-09-03 15:22:00,
2013-09-03 10:27:00,62.4,39.7,30.07,WNW,291,0.0,0.0,43,0.00,,---,0.00,VWS V13.01,2013-09-03 15:27:00,
2013-09-03 10:32:00,62.6,39.2,30.07,SW,219,0.0,0.0,42,0.00,,---,0.00,VWS V13.01,2013-09-03 15:32:00,
2013-09-03 10:37:00,62.8,38.8,30.07,SW,224,5.1,5.6,41,0.00,,---,0.00,VWS V13.01,2013-09-03 15:37:00,
2013-09-03 10:42:00,63.0,38.9,30.07,SSW,210,5.1,5.6,41,0.00,,---,0.00,VWS V13.01,2013-09-03 15:42:00,
2013-09-03 10:47:00,63.1,39.1,30.07,SSW,212,4.0,4.0,41,0.00,,---,0.00,VWS V13.01,2013-09-03 15:47:00,
2013-09-03 10:52:00,63.5,40.0,30.07,SSW,213,0.0,4.0,42,0.00,,---,0.00,VWS V13.01,2013-09-03 15:52:00,
2013-09-03 10:57:00,63.9,40.3,30.07,SW,234,4.0,4.0,42,0.00,,---,0.00,VWS V13.01,2013-09-03 15:57:00,
2013-09-03 11:02:00,64.2,40.0,30.07,WSW,241,3.6,6.0,41,0.00,,---,0.00,VWS V13.01,2013-09-03 16:02:00,
2013-09-03 11:07:00,64.6,39.1,30.07,WNW,286,5.1,5.1,39,0.00,,---,0.00,VWS V13.01,2013-09-03 16:07:00,
2013-09-03 11:12:00,64.8,39.9,30.07,WSW,242,0.0,0.0,40,0.00,,---,0.00,VWS V13.01,2013-09-03 16:12:00,
2013-09-03 11:17:00,64.9,38.1,30.07,SW,234,4.0,6.0,37,0.00,,---,0.00,VWS V13.01,2013-09-03 16:17:00,
2013-09-03 11:22:00,65.1,39.6,30.07,South,187,3.1,5.6,39,0.00,,---,0.00,VWS V13.01,2013-09-03 16:22:00,
2013-09-03 11:27:00,65.5,38.5,30.07,SSE,168,4.7,4.7,37,0.00,,---,0.00,VWS V13.01,2013-09-03 16:27:00,
2013-09-03 11:33:00,65.7,39.4,30.07,SW,224,5.1,6.9,38,0.00,,---,0.00,VWS V13.01,2013-09-03 16:33:00,
2013-09-03 11:38:00,65.8,38.9,30.07,SW,235,5.1,5.1,37,0.00,,---,0.00,VWS V13.01,2013-09-03 16:38:00,
2013-09-03 11:43:00,66.0,39.0,30.07,SW,215,5.1,5.6,37,0.00,,---,0.00,VWS V13.01,2013-09-03 16:43:00,
2013-09-03 11:48:00,66.4,39.3,30.07,South,183,4.0,4.7,37,0.00,,---,0.00,VWS V13.01,2013-09-03 16:48:00,
2013-09-03 11:53:00,66.6,38.8,30.07,SW,222,5.6,5.6,36,0.00,,---,0.00,VWS V13.01,2013-09-03 16:53:00,
2013-09-03 11:58:00,66.7,39.0,30.04,WSW,254,4.0,4.0,36,0.00,,---,0.00,VWS V13.01,2013-09-03 16:58:00,
2013-09-03 12:03:00,67.1,40.0,30.04,SSW,212,4.5,5.6,37,0.00,,---,0.00,VWS V13.01,2013-09-03 17:03:00,
2013-09-03 12:08:00,67.3,38.7,30.04,SW,218,0.0,2.7,35,0.00,,---,0.00,VWS V13.01,2013-09-03 17:08:00,
2013-09-03 12:13:00,67.5,39.6,30.04,WSW,254,0.0,0.0,36,0.00,,---,0.00,VWS V13.01,2013-09-03 17:13:00,
2013-09-03 12:18:00,67.8,39.2,30.04,NNW,329,4.0,4.7,35,0.00,,---,0.00,VWS V13.01,2013-09-03 17:18:00,
2013-09-03 12:23:00,68.0,39.3,30.04,West,277,3.6,5.1,35,0.00,,---,0.00,VWS V13.01,2013-09-03 17:23:00,
2013-09-03 12:28:00,68.4,39.7,30.04,NNW,341,4.5,4.5,35,0.00,,---,0.00,VWS V13.01,2013-09-03 17:28:00,
2013-09-03 12:34:00,68.4,39.7,30.04,NNW,333,3.1,3.1,35,0.00,,---,0.00,VWS V13.01,2013-09-03 17:34:00,
2013-09-03 12:39:00,68.7,39.2,30.04,South,189,3.6,4.7,34,0.00,,---,0.00,VWS V13.01,2013-09-03 17:39:00,
2013-09-03 12:44:00,68.9,40.2,30.04,WSW,251,4.0,4.5,35,0.00,,---,0.00,VWS V13.01,2013-09-03 17:44:00,
2013-09-03 12:49:00,69.1,40.3,30.04,WSW,241,4.0,4.5,35,0.00,,---,0.00,VWS V13.01,2013-09-03 17:49:00,
2013-09-03 12:54:00,69.1,39.6,30.04,SW,226,3.1,4.7,34,0.00,,---,0.00,VWS V13.01,2013-09-03 17:54:00,
2013-09-03 12:59:00,69.4,39.9,30.04,WSW,253,4.7,4.7,34,0.00,,---,0.00,VWS V13.01,2013-09-03 17:59:00,
2013-09-03 13:04:00,69.6,40.0,30.04,NNE,17,3.1,4.0,34,0.00,,---,0.00,VWS V13.01,2013-09-03 18:04:00,
2013-09-03 13:09:00,69.8,40.2,30.04,West,270,4.0,4.7,34,0.00,,---,0.00,VWS V13.01,2013-09-03 18:09:00,
2013-09-03 13:14:00,70.2,40.5,30.04,West,279,4.0,4.0,34,0.00,,---,0.00,VWS V13.01,2013-09-03 18:14:00,
2013-09-03 13:19:00,70.5,40.1,30.04,WSW,246,4.7,6.0,33,0.00,,---,0.00,VWS V13.01,2013-09-03 18:19:00,
2013-09-03 13:24:00,70.7,40.2,30.04,West,261,0.0,0.0,33,0.00,,---,0.00,VWS V13.01,2013-09-03 18:24:00,
2013-09-03 13:29:00,70.9,41.1,30.01,WSW,258,4.7,4.7,34,0.00,,---,0.00,VWS V13.01,2013-09-03 18:29:00,
2013-09-03 13:34:00,71.1,41.3,30.01,WSW,250,0.0,3.6,34,0.00,,---,0.00,VWS V13.01,2013-09-03 18:34:00,
2013-09-03 13:39:00,71.4,41.6,30.01,WSW,241,5.1,5.1,34,0.00,,---,0.00,VWS V13.01,2013-09-03 18:39:00,
2013-09-03 13:45:00,71.6,41.0,30.01,SW,234,5.1,5.1,33,0.00,,---,0.00,VWS V13.01,2013-09-03 18:45:00,
2013-09-03 13:50:00,71.4,41.6,30.01,SW,219,4.7,6.0,34,0.00,,---,0.00,VWS V13.01,2013-09-03 18:50:00,
2013-09-03 13:55:00,71.2,41.5,30.01,SSW,200,3.1,5.1,34,0.00,,---,0.00,VWS V13.01,2013-09-03 18:55:00,
2013-09-03 14:00:00,71.4,41.6,30.01,WSW,257,4.0,4.0,34,0.00,,---,0.00,VWS V13.01,2013-09-03 19:00:00,
2013-09-03 14:05:00,71.8,41.9,30.01,West,279,4.0,4.0,34,0.00,,---,0.00,VWS V13.01,2013-09-03 19:05:00,
2013-09-03 14:10:00,72.0,41.3,30.01,SW,219,2.7,3.1,33,0.00,,---,0.00,VWS V13.01,2013-09-03 19:10:00,
2013-09-03 14:15:00,72.3,41.6,30.01,SW,227,4.7,6.0,33,0.00,,---,0.00,VWS V13.01,2013-09-03 19:15:00,
2013-09-03 14:20:00,72.3,40.8,30.01,West,275,4.7,6.0,32,0.00,,---,0.00,VWS V13.01,2013-09-03 19:20:00,
2013-09-03 14:25:00,72.1,41.5,30.01,SW,234,0.0,4.5,33,0.00,,---,0.00,VWS V13.01,2013-09-03 19:25:00,
2013-09-03 14:30:00,72.5,41.8,30.01,SW,224,6.0,6.0,33,0.00,,---,0.00,VWS V13.01,2013-09-03 19:30:00,
2013-09-03 14:35:00,73.4,41.8,30.01,SW,217,4.0,4.5,32,0.00,,---,0.00,VWS V13.01,2013-09-03 19:35:00,
2013-09-03 14:40:00,74.5,42.7,30.01,WSW,245,4.7,4.7,32,0.00,,---,0.00,VWS V13.01,2013-09-03 19:40:00,
2013-09-03 14:45:00,75.0,42.4,30.01,SW,222,4.0,4.7,31,0.00,,---,0.00,VWS V13.01,2013-09-03 19:45:00,
2013-09-03 14:50:00,75.4,42.7,30.01,SW,226,7.4,7.4,31,0.00,,---,0.00,VWS V13.01,2013-09-03 19:50:00,
2013-09-03 14:55:00,75.6,42.8,30.01,SSW,201,4.7,4.7,31,0.00,,---,0.00,VWS V13.01,2013-09-03 19:55:00,
2013-09-03 15:01:00,75.7,43.0,30.01,SW,223,0.0,0.0,31,0.00,,---,0.00,VWS V13.01,2013-09-03 20:01:00,
2013-09-03 15:06:00,76.1,42.5,30.01,SW,225,3.6,6.5,30,0.00,,---,0.00,VWS V13.01,2013-09-03 20:06:00,
2013-09-03 15:11:00,75.9,40.5,30.01,WSW,258,4.5,6.9,28,0.00,,---,0.00,VWS V13.01,2013-09-03 20:11:00,
2013-09-03 15:16:00,75.7,40.3,30.01,SSW,213,3.1,4.5,28,0.00,,---,0.00,VWS V13.01,2013-09-03 20:16:00,
2013-09-03 15:21:00,75.9,40.5,30.01,SW,236,2.7,4.0,28,0.00,,---,0.00,VWS V13.01,2013-09-03 20:21:00,
2013-09-03 15:26:00,76.3,42.6,30.01,WNW,285,0.0,4.0,30,0.00,,---,0.00,VWS V13.01,2013-09-03 20:26:00,
2013-09-03 15:31:00,76.5,42.8,29.98,NNW,335,5.1,5.1,30,0.00,,---,0.00,VWS V13.01,2013-09-03 20:31:00,
2013-09-03 15:36:00,76.1,42.5,29.98,WSW,238,2.7,5.6,30,0.00,,---,0.00,VWS V13.01,2013-09-03 20:36:00,
2013-09-03 15:41:00,76.1,42.5,29.98,SW,220,5.1,5.1,30,0.00,,---,0.00,VWS V13.01,2013-09-03 20:41:00,
2013-09-03 15:46:00,76.3,43.5,29.98,SW,226,0.0,2.7,31,0.00,,---,0.00,VWS V13.01,2013-09-03 20:46:00,
2013-09-03 15:51:00,76.5,43.6,29.98,SW,226,4.0,4.0,31,0.00,,---,0.00,VWS V13.01,2013-09-03 20:51:00,
2013-09-03 15:56:00,76.3,43.5,29.98,SW,222,3.1,3.1,31,0.00,,---,0.00,VWS V13.01,2013-09-03 20:56:00,
2013-09-03 16:01:00,75.9,41.4,29.98,SW,231,3.6,3.6,29,0.00,,---,0.00,VWS V13.01,2013-09-03 21:01:00,
2013-09-03 16:07:00,75.6,42.0,29.98,WNW,299,4.5,4.5,30,0.00,,---,0.00,VWS V13.01,2013-09-03 21:07:00,
2013-09-03 16:12:00,75.4,41.0,29.98,WSW,251,4.7,4.7,29,0.00,,---,0.00,VWS V13.01,2013-09-03 21:12:00,
2013-09-03 16:17:00,75.2,41.7,29.98,SW,217,6.9,6.9,30,0.00,,---,0.00,VWS V13.01,2013-09-03 21:17:00,
2013-09-03 16:22:00,75.0,41.5,29.98,SW,229,5.1,5.1,30,0.00,,---,0.00,VWS V13.01,2013-09-03 21:22:00,
2013-09-03 16:27:00,74.7,42.0,29.98,SW,217,5.6,5.6,31,0.00,,---,0.00,VWS V13.01,2013-09-03 21:27:00,
2013-09-03 16:32:00,74.3,41.7,29.98,WSW,253,4.7,5.6,31,0.00,,---,0.00,VWS V13.01,2013-09-03 21:32:00,
2013-09-03 16:37:00,73.8,41.3,29.98,WSW,249,3.6,5.1,31,0.00,,---,0.00,VWS V13.01,2013-09-03 21:37:00,
2013-09-03 16:42:00,73.4,41.0,29.98,SW,222,3.6,4.7,31,0.00,,---,0.00,VWS V13.01,2013-09-03 21:42:00,
2013-09-03 16:47:00,73.0,41.5,29.98,WSW,245,3.6,6.0,32,0.00,,---,0.00,VWS V13.01,2013-09-03 21:47:00,
2013-09-03 16:52:00,72.9,41.3,29.98,WNW,287,3.6,4.0,32,0.00,,---,0.00,VWS V13.01,2013-09-03 21:52:00,
2013-09-03 16:57:00,72.7,41.2,29.98,SSW,207,6.9,7.8,32,0.00,,---,0.00,VWS V13.01,2013-09-03 21:57:00,
2013-09-03 17:02:00,72.5,41.0,29.98,West,277,4.0,4.0,32,0.00,,---,0.00,VWS V13.01,2013-09-03 22:02:00,
2013-09-03 17:08:00,72.3,40.8,29.98,West,277,2.7,2.7,32,0.00,,---,0.00,VWS V13.01,2013-09-03 22:08:00,
2013-09-03 17:13:00,72.3,40.8,29.96,West,277,3.1,3.1,32,0.00,,---,0.00,VWS V13.01,2013-09-03 22:13:00,
2013-09-03 17:18:00,72.1,40.7,29.96,SW,230,3.1,4.5,32,0.00,,---,0.00,VWS V13.01,2013-09-03 22:18:00,
2013-09-03 17:23:00,72.1,40.7,29.96,SW,233,7.8,7.8,32,0.00,,---,0.00,VWS V13.01,2013-09-03 22:23:00,
2013-09-03 17:28:00,72.1,40.7,29.98,SW,229,4.0,4.0,32,0.00,,---,0.00,VWS V13.01,2013-09-03 22:28:00,
2013-09-03 17:33:00,72.1,40.7,29.98,West,259,3.1,5.1,32,0.00,,---,0.00,VWS V13.01,2013-09-03 22:33:00,
2013-09-03 17:38:00,72.0,40.5,29.98,SW,231,3.6,3.6,32,0.00,,---,0.00,VWS V13.01,2013-09-03 22:38:00,
2013-09-03 17:43:00,72.0,41.3,29.98,WSW,239,4.0,4.0,33,0.00,,---,0.00,VWS V13.01,2013-09-03 22:43:00,
2013-09-03 17:48:00,71.8,41.2,29.98,SW,233,4.0,4.0,33,0.00,,---,0.00,VWS V13.01,2013-09-03 22:48:00,
2013-09-03 17:53:00,71.8,41.2,29.98,WSW,248,3.6,5.6,33,0.00,,---,0.00,VWS V13.01,2013-09-03 22:53:00,
2013-09-03 17:58:00,71.6,41.0,29.98,SW,221,0.0,3.1,33,0.00,,---,0.00,VWS V13.01,2013-09-03 22:58:00,
2013-09-03 18:04:00,71.6,41.0,29.98,SW,230,3.6,4.5,33,0.00,,---,0.00,VWS V13.01,2013-09-03 23:04:00,
2013-09-03 18:09:00,71.4,40.8,29.98,SW,231,0.0,0.0,33,0.00,,---,0.00,VWS V13.01,2013-09-03 23:09:00,
2013-09-03 18:14:00,71.2,41.5,29.96,SW,216,5.1,5.1,34,0.00,,---,0.00,VWS V13.01,2013-09-03 23:14:00,
2013-09-03 18:19:00,71.1,41.3,29.96,SW,230,4.0,4.0,34,0.00,,---,0.00,VWS V13.01,2013-09-03 23:19:00,
2013-09-03 18:24:00,70.9,41.1,29.96,SW,230,4.5,4.5,34,0.00,,---,0.00,VWS V13.01,2013-09-03 23:24:00,
2013-09-03 18:29:00,70.7,41.7,29.96,SW,230,2.7,3.1,35,0.00,,---,0.00,VWS V13.01,2013-09-03 23:29:00,
2013-09-03 18:34:00,70.3,41.4,29.96,SW,230,0.0,0.0,35,0.00,,---,0.00,VWS V13.01,2013-09-03 23:34:00,
2013-09-03 18:39:00,70.2,41.3,29.96,SW,230,0.0,0.0,35,0.00,,---,0.00,VWS V13.01,2013-09-03 23:39:00,
2013-09-03 18:44:00,70.0,41.1,29.96,SW,230,0.0,0.0,35,0.00,,---,0.00,VWS V13.01,2013-09-03 23:44:00,
2013-09-03 18:49:00,69.8,40.9,29.96,SW,230,0.0,0.0,35,0.00,,---,0.00,VWS V13.01,2013-09-03 23:49:00,
2013-09-03 18:54:00,69.4,41.3,29.96,SW,230,0.0,0.0,36,0.00,,---,0.00,VWS V13.01,2013-09-03 23:54:00,
2013-09-03 18:59:00,69.1,41.7,29.96,SW,230,0.0,0.0,37,0.00,,---,0.00,VWS V13.01,2013-09-03 23:59:00,
2013-09-03 19:04:00,68.7,41.4,29.96,SW,230,0.0,0.0,37,0.00,,---,0.00,VWS V13.01,2013-09-04 00:04:00,
2013-09-03 19:09:00,68.5,42.0,29.96,SW,230,0.0,0.0,38,0.00,,---,0.00,VWS V13.01,2013-09-04 00:09:00,
2013-09-03 19:14:00,68.4,41.8,29.96,SW,230,0.0,0.0,38,0.00,,---,0.00,VWS V13.01,2013-09-04 00:14:00,
2013-09-03 19:19:00,68.2,41.6,29.96,SW,230,0.0,0.0,38,0.00,,---,0.00,VWS V13.01,2013-09-04 00:19:00,
2013-09-03 19:24:00,67.8,42.0,29.96,SW,230,0.0,0.0,39,0.00,,---,0.00,VWS V13.01,2013-09-04 00:24:00,
2013-09-03 19:29:00,67.5,42.3,29.96,SW,230,0.0,0.0,40,0.00,,---,0.00,VWS V13.01,2013-09-04 00:29:00,
2013-09-03 19:34:00,67.1,42.0,29.96,SW,230,0.0,0.0,40,0.00,,---,0.00,VWS V13.01,2013-09-04 00:34:00,
2013-09-03 19:39:00,66.9,41.8,29.96,SW,230,0.0,0.0,40,0.00,,---,0.00,VWS V13.01,2013-09-04 00:39:00,
2013-09-03 19:45:00,66.6,41.5,29.96,SW,230,0.0,0.0,40,0.00,,---,0.00,VWS V13.01,2013-09-04 00:45:00,
2013-09-03 19:50:00,66.6,41.5,29.96,SW,230,0.0,0.0,40,0.00,,---,0.00,VWS V13.01,2013-09-04 00:50:00,
2013-09-03 19:55:00,66.4,41.3,29.96,SW,230,0.0,0.0,40,0.00,,---,0.00,VWS V13.01,2013-09-04 00:55:00,
2013-09-03 20:00:00,66.4,41.3,29.96,SW,230,0.0,0.0,40,0.00,,---,0.00,VWS V13.01,2013-09-04 01:00:00,
2013-09-03 20:05:00,66.4,41.3,29.96,SW,230,3.6,4.5,40,0.00,,---,0.00,VWS V13.01,2013-09-04 01:05:00,
2013-09-03 20:10:00,66.2,41.8,29.96,SW,230,4.7,4.7,41,0.00,,---,0.00,VWS V13.01,2013-09-04 01:10:00,
2013-09-03 20:15:00,66.2,41.2,29.96,SW,230,4.0,4.7,40,0.00,,---,0.00,VWS V13.01,2013-09-04 01:15:00,
2013-09-03 20:20:00,66.2,41.2,29.96,SW,230,0.0,4.0,40,0.00,,---,0.00,VWS V13.01,2013-09-04 01:20:00,
2013-09-03 20:25:00,66.2,41.2,29.96,SW,230,4.0,4.5,40,0.00,,---,0.00,VWS V13.01,2013-09-04 01:25:00,
2013-09-03 20:30:00,66.2,41.2,29.96,SW,230,3.6,3.6,40,0.00,,---,0.00,VWS V13.01,2013-09-04 01:30:00,
2013-09-03 20:35:00,66.2,41.2,29.96,SW,230,0.0,0.0,40,0.00,,---,0.00,VWS V13.01,2013-09-04 01:35:00,
2013-09-03 20:40:00,66.2,41.2,29.96,SW,230,0.0,3.1,40,0.00,,---,0.00,VWS V13.01,2013-09-04 01:40:00,
2013-09-03 20:45:00,66.2,41.2,29.98,SW,230,3.1,4.0,40,0.00,,---,0.00,VWS V13.01,2013-09-04 01:45:00,
2013-09-03 20:50:00,66.2,41.2,29.98,SW,229,0.0,0.0,40,0.00,,---,0.00,VWS V13.01,2013-09-04 01:50:00,
2013-09-03 20:55:00,66.2,41.2,29.98,SW,229,0.0,0.0,40,0.00,,---,0.00,VWS V13.01,2013-09-04 01:55:00,
2013-09-03 21:00:00,66.4,40.7,29.98,SW,229,3.6,4.0,39,0.00,,---,0.00,VWS V13.01,2013-09-04 02:00:00,
2013-09-03 21:06:00,66.4,40.7,29.98,SW,229,0.0,2.7,39,0.00,,---,0.00,VWS V13.01,2013-09-04 02:06:00,
2013-09-03 21:11:00,66.4,40.7,29.98,SW,229,4.5,4.5,39,0.00,,---,0.00,VWS V13.01,2013-09-04 02:11:00,
2013-09-03 21:16:00,66.2,40.5,29.98,SW,229,4.7,4.7,39,0.00,,---,0.00,VWS V13.01,2013-09-04 02:16:00,
2013-09-03 21:21:00,66.2,40.5,29.98,SW,229,4.0,4.7,39,0.00,,---,0.00,VWS V13.01,2013-09-04 02:21:00,
2013-09-03 21:26:00,66.4,40.7,29.98,WSW,240,3.6,4.5,39,0.00,,---,0.00,VWS V13.01,2013-09-04 02:26:00,
2013-09-03 21:31:00,66.4,40.7,29.98,WSW,240,0.0,3.6,39,0.00,,---,0.00,VWS V13.01,2013-09-04 02:31:00,
2013-09-03 21:36:00,66.2,40.5,29.98,WSW,239,0.0,4.5,39,0.00,,---,0.00,VWS V13.01,2013-09-04 02:36:00,
2013-09-03 21:41:00,66.2,41.2,29.98,WSW,257,3.1,3.1,40,0.00,,---,0.00,VWS V13.01,2013-09-04 02:41:00,
2013-09-03 21:46:00,66.2,41.2,29.98,WNW,284,3.1,3.1,40,0.00,,---,0.00,VWS V13.01,2013-09-04 02:46:00,
2013-09-03 21:51:00,66.2,41.2,29.98,SW,233,5.1,5.1,40,0.00,,---,0.00,VWS V13.01,2013-09-04 02:51:00,
2013-09-03 21:56:00,66.4,41.3,29.98,SW,219,5.6,7.8,40,0.00,,---,0.00,VWS V13.01,2013-09-04 02:56:00,
2013-09-03 22:01:00,66.4,41.3,29.98,WSW,237,3.1,5.1,40,0.00,,---,0.00,VWS V13.01,2013-09-04 03:01:00,
2013-09-03 22:06:00,66.2,41.2,29.98,SW,236,3.1,5.6,40,0.00,,---,0.00,VWS V13.01,2013-09-04 03:06:00,
2013-09-03 22:12:00,66.4,41.3,29.98,SW,233,4.7,5.1,40,0.00,,---,0.00,VWS V13.01,2013-09-04 03:12:00,
2013-09-03 22:17:00,66.4,41.3,29.98,SW,233,2.7,4.7,40,0.00,,---,0.00,VWS V13.01,2013-09-04 03:17:00,
2013-09-03 22:22:00,66.4,41.3,29.98,SW,218,5.1,5.1,40,0.00,,---,0.00,VWS V13.01,2013-09-04 03:22:00,
2013-09-03 22:27:00,66.4,41.3,29.98,SW,228,3.6,3.6,40,0.00,,---,0.00,VWS V13.01,2013-09-04 03:27:00,
2013-09-03 22:32:00,66.4,41.3,29.98,WNW,291,3.6,4.0,40,0.00,,---,0.00,VWS V13.01,2013-09-04 03:32:00,
2013-09-03 22:37:00,66.4,41.3,29.98,WSW,244,2.7,4.0,40,0.00,,---,0.00,VWS V13.01,2013-09-04 03:37:00,
2013-09-03 22:42:00,66.6,40.9,29.98,WSW,239,0.0,3.1,39,0.00,,---,0.00,VWS V13.01,2013-09-04 03:42:00,
2013-09-03 22:47:00,66.6,40.9,29.98,WSW,243,3.1,3.1,39,0.00,,---,0.00,VWS V13.01,2013-09-04 03:47:00,
2013-09-03 22:52:00,66.6,40.9,29.98,WSW,248,4.5,4.7,39,0.00,,---,0.00,VWS V13.01,2013-09-04 03:52:00,
2013-09-03 22:57:00,66.6,40.9,29.98,SW,228,4.0,4.5,39,0.00,,---,0.00,VWS V13.01,2013-09-04 03:57:00,
2013-09-03 23:01:00,66.6,41.5,29.98,South,186,4.5,6.0,40,0.00,,---,0.00,VWS V13.01,2013-09-04 04:01:00,
2013-09-03 23:02:00,66.6,40.9,29.98,SW,224,4.5,5.1,39,0.00,,---,0.00,VWS V13.01,2013-09-04 04:02:00,
2013-09-03 23:03:00,66.6,40.9,29.98,SSW,212,5.6,5.6,39,0.00,,---,0.00,VWS V13.01,2013-09-04 04:03:00,
2013-09-03 23:08:00,66.6,40.9,29.98,WSW,245,4.5,6.5,39,0.00,,---,0.00,VWS V13.01,2013-09-04 04:08:00,
2013-09-03 23:13:00,66.7,41.0,29.98,WSW,246,4.7,5.1,39,0.00,,---,0.00,VWS V13.01,2013-09-04 04:13:00,
2013-09-03 23:19:00,66.7,41.0,29.98,WSW,245,5.1,5.6,39,0.00,,---,0.00,VWS V13.01,2013-09-04 04:19:00,
2013-09-03 23:24:00,66.7,41.0,29.98,WSW,252,3.1,5.6,39,0.00,,---,0.00,VWS V13.01,2013-09-04 04:24:00,
2013-09-03 23:29:00,66.6,41.5,29.98,West,279,3.1,6.9,40,0.00,,---,0.00,VWS V13.01,2013-09-04 04:29:00,
2013-09-03 23:34:00,66.6,41.5,29.98,SW,235,4.5,5.6,40,0.00,,---,0.00,VWS V13.01,2013-09-04 04:34:00,
2013-09-03 23:39:00,66.6,41.5,29.98,WSW,258,2.7,6.0,40,0.00,,---,0.00,VWS V13.01,2013-09-04 04:39:00,
2013-09-03 23:44:00,66.6,41.5,29.98,WSW,245,4.0,5.6,40,0.00,,---,0.00,VWS V13.01,2013-09-04 04:44:00,
2013-09-03 23:49:00,66.6,41.5,29.98,WSW,253,4.0,4.0,40,0.00,,---,0.00,VWS V13.01,2013-09-04 04:49:00,
2013-09-03 23:54:00,66.6,41.5,29.98,SW,233,4.5,4.5,40,0.00,,---,0.00,VWS V13.01,2013-09-04 04:54:00,
2013-09-03 23:59:00,66.4,41.3,29.98,WSW,254,4.5,5.1,40,0.00,,---,0.00,VWS V13.01,2013-09-04 04:59:00,